SL-16 DEB

Satellite information

Favourite Embed

Satellite Type and Status

DEBRISIN ORBIT

Key statistics

Satellite SL-16 DEB at a glance.

Uptime

12042

Days in orbit

Revolutions

≈ 13.8

Per day

Orbit

LEO

Low Earth Orbit

Inclination

71.3

Latest

Satellite identification and parameters

Extended collection of information and parameters for SL-16 DEB.

Object identification

Identified? True

Debris? True

Object name: SL-16 DEB

International designator: 1992-093AA

Object number (NORAD): 22337

Object ID (CCSDS): 22337

Country: COMMONWEALTH OF INDEPENDENT STATES (CIS)

Current information (Y/N): Y

RCS size: MEDIUM

Orbital parameters

Period: 104.005 minutes

Inclination: 71.2903 deg

SMA: 7325.94 km

Apoapsis: 1056.066 km

Periapsis: 839.543 km

RAAN: 323.5621 deg

Eccentricy: 0.01477787

Argument of periapsis: 170.5043 deg

Mean anomaly: 189.8917 deg

Mean motion: 13.84547176 rev/day

Mean motion (dot): 0.00000043 rev/day2

B* drag term: 0.00006966076 1/REarth

Two-line elements (TLE)

Creation date: Dec. 14, 2025, 3:07 a.m.

Reference frame: TEME

Reference center: EARTH

Epoch: Dec. 13, 2025, 3:51 p.m. UTC

TLE line 0: 0 SL-16 DEB

TLE line 1: 1 22337U 92093AA 25347.66049742 .00000043 00000-0 69661-4 0 9998

TLE line 2: 2 22337 71.2903 323.5621 0147779 170.5043 189.8917 13.84547176663967

Live tracking on map

Real-time ground track for satellite SL-16 DEB.

In-orbit conjunctions

A list of the most updated potential collisions computed for object SL-16 DEB.

Target Orbit TCA Probability of collision Miss distance Type
SCOUT G-1 DEB SSO 2025-03-15 15:30:39 0.0004078212 103.0 (m) DEBRIS

Associated space launch

Second generation ELING satellite

SL-16 DEB was lifted into orbit during the mission ‘Zenit-2 | Tselina-2 12’, on board a Zenit-2 space rocket.

The launch took place on Dec. 25, 1992, 5:56 a.m. from 45/1.

For more information about the launch, click the button.

Launch to space Zenit-2 | Tselina-2 12
Zenit-2 | Tselina-2 12

Agency: N/A

Status: Launch Successful

Launch date: Dec. 25, 1992, 5:56 a.m. UTC

Rocket: Zenit-2

Launch pad: 45/1

Location: Baikonur Cosmodrome, Republic of Kazakhstan

...

Latest news about this satellite

There are no fresh news available about this satellite. Check back as we update our databases every day.


Newsletter sign-up

Weekly statistics, charts and insights to help you stay on top of the space industry.